Houston Clover, TX

1:16 AM CDT on June 29, 2017 (GMT -0500)
Clover

Weather History for KLVJ - July, 2013

Change the Weather History Date:

Tuesday, July 23, 2013

  Actual Average (KEFD) Record (KEFD)
Temperature  
Mean Temperature 84 °F -  
Max Temperature 91 °F 91 °F 102 °F (2000)
Min Temperature 77 °F 73 °F 73 °F (2000)
Cooling Degree Days 19    
Growing Degree Days 34 (Base 50)    
Moisture  
Dew Point 73 °F    
Average Humidity 75    
Maximum Humidity 90    
Minimum Humidity 47    
Precipitation  
Precipitation 0.00 in - - ()
Sea Level Pressure  
Sea Level Pressure 30.01 in    
Wind  
Wind Speed 4 mph (SSW)    
Max Wind Speed 9 mph    
Max Gust Speed 17 mph    
Visibility 8 miles    
Events      
Averages and records for this station are not official NWS values.
T = Trace of Precipitation, MM = Missing Value Source: NWS Daily Summary

Daily Weather History Graph

Daily Weather History Graph

Search for Another Location

Airport or City:

Trip Planner

Search our weather history database for the weather conditions in past years. The results will help you decide how hot, cold, wet, or windy it might be!

Date:

Astronomy

Jul. 23, 2013 Rise Set
Actual Time 6:35 AM CDT 8:18 PM CDT
Civil Twilight 6:09 AM CDT 8:45 PM CDT
Nautical Twilight 5:37 AM CDT 9:16 PM CDT
Astronomical Twilight 5:04 AM CDT 9:49 PM CDT
Moon 9:00 PM CDT (7/23) 7:36 AM CDT (7/23)
Length of Visible Light 14h 35m
Length of Day
13h 43m
Full, 99% of the Moon is Illuminated
Jul 23
Full
Jul 29
Last Quarter
Aug 6
New
Aug 14
First Quarter
Aug 20
Full

Hourly Weather History & Observations

Time (CDT) Temp. Heat Index Dew Point Humidity Pressure Visibility Wind Dir Wind Speed Gust Speed Precip Events Conditions
12:08 AM 80.6 °F 86.2 °F 75.2 °F 84% 30.03 in 9.0 mi South 3.5 mph - N/A   Mostly Cloudy
12:40 AM 80.6 °F 86.2 °F 75.2 °F 84% 30.02 in 8.0 mi South 5.8 mph - N/A   Mostly Cloudy
12:53 AM 81.0 °F 87.3 °F 75.9 °F 85% 30.02 in 8.0 mi South 6.9 mph - N/A   Mostly Cloudy
1:34 AM 80.6 °F 86.2 °F 75.2 °F 84% 30.02 in 8.0 mi South 3.5 mph - N/A   Scattered Clouds
1:44 AM 80.6 °F 86.2 °F 75.2 °F 84% 30.01 in 8.0 mi SSW 4.6 mph - N/A   Mostly Cloudy
1:53 AM 80.1 °F 85.4 °F 75.9 °F 87% 30.01 in 8.0 mi Calm Calm - N/A   Mostly Cloudy
2:53 AM 79.0 °F - 75.9 °F 90% 30.00 in 7.0 mi Calm Calm - N/A   Overcast
3:53 AM 79.0 °F - 75.0 °F 88% 30.00 in 8.0 mi Calm Calm - N/A   Mostly Cloudy
4:53 AM 77.0 °F - 73.9 °F 90% 30.01 in 8.0 mi Calm Calm - N/A   Mostly Cloudy
5:27 AM 78.8 °F - 75.2 °F 89% 30.01 in 7.0 mi Calm Calm - N/A   Scattered Clouds
5:53 AM 77.0 °F - 73.9 °F 90% 30.01 in 7.0 mi South 3.5 mph - N/A   Partly Cloudy
6:21 AM 77.0 °F - 73.4 °F 89% 30.02 in 7.0 mi Calm Calm - N/A   Mostly Cloudy
6:44 AM 77.0 °F - 73.4 °F 89% 30.02 in 6.0 mi Calm Calm - N/A   Scattered Clouds
6:53 AM 77.0 °F - 73.9 °F 90% 30.02 in 6.0 mi South 3.5 mph - N/A   Mostly Cloudy
7:53 AM 78.1 °F - 75.0 °F 90% 30.04 in 6.0 mi South 3.5 mph - N/A   Overcast
8:48 AM 82.4 °F 89.5 °F 75.2 °F 79% 30.05 in 8.0 mi SSW 8.1 mph - N/A   Mostly Cloudy
8:53 AM 82.0 °F 88.6 °F 75.0 °F 79% 30.05 in 8.0 mi Variable 5.8 mph - N/A   Scattered Clouds
9:53 AM 84.0 °F 91.2 °F 73.9 °F 72% 30.05 in 8.0 mi SSW 6.9 mph - N/A   Mostly Cloudy
10:53 AM 88.0 °F 94.7 °F 72.0 °F 59% 30.05 in 10.0 mi South 8.1 mph - N/A   Mostly Cloudy
11:53 AM 89.1 °F 95.0 °F 71.1 °F 55% 30.05 in 10.0 mi SW 5.8 mph 16.1 mph N/A   Scattered Clouds
12:53 PM 90.0 °F 96.4 °F 71.1 °F 54% 30.04 in 10.0 mi Variable 6.9 mph - N/A   Scattered Clouds
1:53 PM 91.9 °F 99.5 °F 72.0 °F 52% 30.02 in 10.0 mi SSW 6.9 mph - N/A   Mostly Cloudy
2:53 PM 91.9 °F 96.9 °F 69.1 °F 47% 30.00 in 10.0 mi SW 8.1 mph 17.3 mph N/A   Partly Cloudy
3:53 PM 91.0 °F 95.6 °F 69.1 °F 48% 29.99 in 10.0 mi Variable 6.9 mph - N/A   Clear
4:53 PM 91.9 °F 97.4 °F 70.0 °F 48% 29.98 in 10.0 mi SSW 5.8 mph - N/A   Clear
5:53 PM 90.0 °F 96.4 °F 71.1 °F 54% 29.96 in 10.0 mi South 9.2 mph - N/A   Clear
6:53 PM 89.1 °F 95.0 °F 71.1 °F 55% 29.95 in 10.0 mi South 6.9 mph 17.3 mph N/A   Clear
7:53 PM 86.0 °F 92.2 °F 72.0 °F 63% 29.95 in 9.0 mi South 9.2 mph - N/A   Clear
8:53 PM 82.9 °F 88.8 °F 73.0 °F 72% 29.94 in 10.0 mi South 8.1 mph - N/A   Clear
9:53 PM 81.0 °F 85.8 °F 73.0 °F 77% 29.96 in 10.0 mi South 6.9 mph - N/A   Clear
10:53 PM 80.1 °F 84.2 °F 73.0 °F 79% 29.97 in 9.0 mi South 5.8 mph - N/A   Clear
11:53 PM 79.0 °F - 73.0 °F 82% 29.98 in 9.0 mi South 3.5 mph - N/A   Clear